1998-067RG

Last updated on Sun Feb 23 2020 00:02:06 GMT+0000 (Coordinated Universal Time)

1 45263U 98067RG 20052.84144132 .00021581 00000-0 38755-3 0 9994 2 45263 51.6438 204.1271 0007343 275.8091 84.1933 15.49796020 444
UTC large
Height (km)
Speed (km/s)
/
Latitude / Longitude
Inclination (degrees)
Orbital Period (minutes)
Azimuth
Elevation
Range (km)
Doppler Factor

Next 0 passes for location: London (51.5072 / 0.1276)

Sorry there are no passes over London.